When you browse on this site, cookies collect data to enhance your experience and personalize the content and advertising you see.
Visit our Privacy Policy to learn more. By continuing to use the site, you agree to this use of cookies and data.
  • en France
  • Liste des pays
  • À 7 jours
  • Température de l'eau
  • Carte satellitaire
  • Carte météo
  • Widgets météo
  • user-avatar
    Se connecter

    Météo par heure à Tukay-Tamak

    Ce jour, 17 Février, Dimanche

    Heure Température Précipitation Vent Pression Humidité
    00:00 -6°C° 0 mm 3 m/s 742 mmHg 96%
    01:00 -5°C° 0 mm 3 m/s 742 mmHg 97%
    02:00 -5°C° 0.1 mm 3 m/s 742 mmHg 97%
    03:00 -4°C° 0.1 mm 3 m/s 742 mmHg 97%
    04:00 -4°C° 0.1 mm 3 m/s 742 mmHg 96%
    05:00 -5°C° 0 mm 3 m/s 742 mmHg 97%
    06:00 -4°C° 0 mm 2 m/s 741 mmHg 97%
    07:00 -5°C° 0 mm 2 m/s 741 mmHg 97%
    08:00 -5°C° 0 mm 2 m/s 741 mmHg 96%
    09:00 -5°C° 0 mm 2 m/s 741 mmHg 96%
    10:00 -5°C° 0 mm 2 m/s 741 mmHg 95%
    11:00 -5°C° 0 mm 3 m/s 740 mmHg 93%
    12:00 -4°C° 0 mm 4 m/s 740 mmHg 91%
    13:00 -4°C° 0 mm 5 m/s 739 mmHg 89%
    14:00 -4°C° 0 mm 5 m/s 738 mmHg 89%
    15:00 -5°C° 0 mm 5 m/s 738 mmHg 88%
    16:00 -5°C° 0 mm 5 m/s 737 mmHg 88%
    17:00 -5°C° 0 mm 5 m/s 736 mmHg 88%
    18:00 -6°C° 0 mm 5 m/s 735 mmHg 89%
    19:00 -6°C° 0 mm 5 m/s 735 mmHg 89%
    20:00 -6°C° 0.1 mm 6 m/s 734 mmHg 90%
    21:00 -8°C° 0.1 mm 6 m/s 733 mmHg 90%
    22:00 -8°C° 0.1 mm 6 m/s 732 mmHg 90%
    23:00 -8°C° 0.3 mm 6 m/s 732 mmHg 91%

    Demain, 18 Février, Lundi

    Heure Température Précipitation Vent Pression Humidité
    00:00 -8°C° 0.3 mm 6 m/s 731 mmHg 91%
    01:00 -8°C° 0.3 mm 6 m/s 730 mmHg 92%
    02:00 -7°C° 0.3 mm 5 m/s 730 mmHg 92%
    03:00 -7°C° 0.3 mm 5 m/s 730 mmHg 93%
    04:00 -7°C° 0.3 mm 5 m/s 729 mmHg 93%
    05:00 -8°C° 0.2 mm 4 m/s 729 mmHg 93%
    06:00 -8°C° 0.2 mm 4 m/s 729 mmHg 94%
    07:00 -7°C° 0.2 mm 3 m/s 729 mmHg 94%
    08:00 -7°C° 0.2 mm 3 m/s 729 mmHg 94%
    09:00 -5°C° 0.2 mm 2 m/s 729 mmHg 95%
    10:00 -5°C° 0.2 mm 2 m/s 729 mmHg 95%
    11:00 -2°C° 0.3 mm 1 m/s 730 mmHg 94%
    12:00 -2°C° 0.3 mm 1 m/s 730 mmHg 93%
    13:00 -1°C° 0.3 mm 1 m/s 730 mmHg 93%
    14:00 -3°C° 0.2 mm 2 m/s 730 mmHg 93%
    15:00 -3°C° 0.2 mm 2 m/s 731 mmHg 93%
    16:00 -4°C° 0.2 mm 3 m/s 731 mmHg 94%
    17:00 -5°C° 0.3 mm 3 m/s 732 mmHg 94%
    18:00 -5°C° 0.3 mm 4 m/s 732 mmHg 94%
    19:00 -5°C° 0.3 mm 4 m/s 733 mmHg 95%
    20:00 -6°C° 0.3 mm 5 m/s 734 mmHg 94%
    21:00 -6°C° 0.3 mm 6 m/s 735 mmHg 93%
    22:00 -6°C° 0.3 mm 6 m/s 736 mmHg 92%
    23:00 -7°C° 0.3 mm 7 m/s 737 mmHg 91%

    Après-demain, 19 Février, Mardi

    Heure Température Précipitation Vent Pression Humidité
    00:00 -7°C° 0.3 mm 8 m/s 738 mmHg 90%
    01:00 -9°C° 0.3 mm 9 m/s 739 mmHg 89%
    02:00 -10°C° 0.1 mm 9 m/s 740 mmHg 88%
    03:00 -12°C° 0.1 mm 9 m/s 741 mmHg 87%
    04:00 -15°C° 0.1 mm 9 m/s 742 mmHg 86%
    05:00 -16°C° 0 mm 8 m/s 743 mmHg 86%
    06:00 -18°C° 0 mm 7 m/s 745 mmHg 87%
    07:00 -18°C° 0 mm 6 m/s 746 mmHg 87%
    08:00 -18°C° 0 mm 6 m/s 746 mmHg 85%
    09:00 -20°C° 0 mm 6 m/s 747 mmHg 84%
    10:00 -20°C° 0 mm 6 m/s 748 mmHg 82%
    11:00 -20°C° 0 mm 6 m/s 749 mmHg 82%
    12:00 -18°C° 0 mm 6 m/s 749 mmHg 82%
    13:00 -18°C° 0 mm 5 m/s 750 mmHg 81%
    14:00 -18°C° 0 mm 5 m/s 750 mmHg 82%
    15:00 -16°C° 0 mm 4 m/s 750 mmHg 83%
    16:00 -16°C° 0 mm 4 m/s 751 mmHg 84%
    17:00 -15°C° 0 mm 3 m/s 751 mmHg 86%
    18:00 -16°C° 0 mm 3 m/s 751 mmHg 87%
    19:00 -16°C° 0 mm 3 m/s 751 mmHg 89%
    20:00 -15°C° 0 mm 3 m/s 751 mmHg 87%
    21:00 -14°C° 0 mm 3 m/s 751 mmHg 85%
    22:00 -14°C° 0 mm 4 m/s 751 mmHg 83%
    23:00 -14°C° 0.1 mm 4 m/s 751 mmHg 86%

    20 Février, Mercredi

    Heure Température Précipitation Vent Pression Humidité
    00:00 -14°C° 0.1 mm 4 m/s 750 mmHg 89%
    01:00 -14°C° 0.1 mm 4 m/s 750 mmHg 92%
    02:00 -12°C° 0.1 mm 4 m/s 750 mmHg 92%
    03:00 -12°C° 0.1 mm 4 m/s 750 mmHg 93%
    04:00 -11°C° 0.1 mm 4 m/s 750 mmHg 93%
    05:00 -11°C° 0 mm 4 m/s 750 mmHg 93%
    06:00 -11°C° 0 mm 4 m/s 750 mmHg 93%
    07:00 -12°C° 0 mm 4 m/s 750 mmHg 94%
    08:00 -11°C° 0 mm 4 m/s 750 mmHg 94%
    09:00 -11°C° 0 mm 4 m/s 750 mmHg 94%
    10:00 -11°C° 0 mm 4 m/s 750 mmHg 94%
    11:00 -10°C° 0 mm 4 m/s 750 mmHg 94%
    12:00 -11°C° 0 mm 5 m/s 750 mmHg 93%
    13:00 -10°C° 0 mm 5 m/s 750 mmHg 93%
    14:00 -10°C° 0 mm 5 m/s 750 mmHg 91%
    15:00 -10°C° 0 mm 5 m/s 749 mmHg 90%
    16:00 -10°C° 0 mm 6 m/s 749 mmHg 89%
    17:00 -11°C° 0 mm 6 m/s 749 mmHg 88%
    18:00 -11°C° 0 mm 6 m/s 749 mmHg 88%
    19:00 -12°C° 0 mm 5 m/s 749 mmHg 88%
    20:00 -11°C° 0 mm 6 m/s 748 mmHg 87%
    21:00 -11°C° 0 mm 6 m/s 748 mmHg 87%
    22:00 -10°C° 0 mm 6 m/s 748 mmHg 86%
    23:00 -10°C° 0 mm 6 m/s 748 mmHg 86%

    21 Février, Jeudi

    Heure Température Précipitation Vent Pression Humidité
    00:00 -11°C° 0 mm 6 m/s 748 mmHg 86%
    01:00 -11°C° 0 mm 6 m/s 748 mmHg 85%
    02:00 -12°C° 0 mm 6 m/s 748 mmHg 86%
    03:00 -12°C° 0 mm 6 m/s 747 mmHg 86%
    04:00 -13°C° 0 mm 7 m/s 747 mmHg 86%
    05:00 -14°C° 0 mm 7 m/s 747 mmHg 87%
    06:00 -14°C° 0 mm 7 m/s 747 mmHg 87%
    07:00 -14°C° 0 mm 7 m/s 747 mmHg 88%
    08:00 -15°C° 0 mm 8 m/s 747 mmHg 88%
    09:00 -13°C° 0 mm 8 m/s 746 mmHg 88%
    10:00 -13°C° 0 mm 8 m/s 746 mmHg 88%
    11:00 -12°C° 0.1 mm 8 m/s 746 mmHg 89%
    12:00 -11°C° 0.1 mm 8 m/s 746 mmHg 89%
    13:00 -11°C° 0.1 mm 8 m/s 746 mmHg 90%
    14:00 -10°C° 0.1 mm 8 m/s 746 mmHg 89%
    15:00 -9°C° 0.1 mm 7 m/s 746 mmHg 89%
    16:00 -9°C° 0.1 mm 7 m/s 746 mmHg 89%
    17:00 -9°C° 0.1 mm 7 m/s 746 mmHg 89%
    18:00 -9°C° 0.1 mm 7 m/s 746 mmHg 89%
    19:00 -9°C° 0.1 mm 6 m/s 746 mmHg 90%
    20:00 -9°C° 0.2 mm 6 m/s 746 mmHg 90%
    21:00 -9°C° 0.2 mm 6 m/s 746 mmHg 90%
    22:00 -9°C° 0.2 mm 6 m/s 746 mmHg 90%
    23:00 -7°C° 0.2 mm 5 m/s 746 mmHg 91%

    22 Février, Vendredi

    Heure Température Précipitation Vent Pression Humidité
    00:00 -7°C° 0.2 mm 5 m/s 745 mmHg 91%
    01:00 -6°C° 0.2 mm 5 m/s 745 mmHg 92%
    02:00 -5°C° 0.2 mm 4 m/s 745 mmHg 91%
    03:00 -5°C° 0.2 mm 4 m/s 745 mmHg 91%
    04:00 -4°C° 0.2 mm 4 m/s 745 mmHg 91%
    05:00 -5°C° 0 mm 4 m/s 745 mmHg 92%
    06:00 -7°C° 0 mm 4 m/s 745 mmHg 92%
    07:00 -6°C° 0 mm 3 m/s 744 mmHg 93%
    08:00 -5°C° 0.1 mm 4 m/s 745 mmHg 93%
    09:00 -4°C° 0.1 mm 4 m/s 745 mmHg 93%
    10:00 -3°C° 0.1 mm 4 m/s 745 mmHg 92%
    11:00 -3°C° 0.2 mm 4 m/s 745 mmHg 94%
    12:00 -1°C° 0.2 mm 3 m/s 745 mmHg 96%
    13:00 -1°C° 0.2 mm 3 m/s 745 mmHg 98%
    14:00 -1°C° 0.4 mm 2 m/s 745 mmHg 96%
    15:00 -1°C° 0.4 mm 2 m/s 745 mmHg 95%
    16:00 -1°C° 0.4 mm 2 m/s 745 mmHg 93%
    17:00 -2°C° 0.1 mm 2 m/s 745 mmHg 93%
    18:00 -3°C° 0.1 mm 2 m/s 745 mmHg 92%
    19:00 -4°C° 0.1 mm 2 m/s 745 mmHg 92%
    20:00 -2°C° 0 mm 1 m/s 745 mmHg 93%
    21:00 -3°C° 0 mm 1 m/s 746 mmHg 93%
    22:00 -3°C° 0 mm 1 m/s 746 mmHg 94%
    23:00 -5°C° 0.2 mm 2 m/s 746 mmHg 94%
    Voir plus